Edwards AFB North Base, CA

1:50 PM PST on November 20, 2019 (GMT -0800)
Edwards AFB North Base

Weather History for K9L2 - September, 2019

Change the Weather History Date:

Saturday, September 14, 2019

  Actual Average (WUND) Record (WUND)
Temperature  
Mean Temperature 76 °F -  
Max Temperature 98 °F - - (-1)
Min Temperature 54 °F - - (-1)
Cooling Degree Days 11    
Growing Degree Days 26 (Base 50)    
Moisture  
Dew Point 31 °F    
Average Humidity 20    
Maximum Humidity 39    
Minimum Humidity 7    
Precipitation  
Precipitation 0.00 in - - ()
Sea Level Pressure  
Sea Level Pressure 29.93 in    
Wind  
Wind Speed 3 mph ()    
Max Wind Speed 13 mph    
Max Gust Speed -    
Visibility 7.6 miles    
Events      
Averages and records for this station are not official NWS values.
T = Trace of Precipitation, MM = Missing Value Source: Averaged Metar Reports

Daily Weather History Graph

Daily Weather History Graph

Search for Another Location

Airport or City:

Astronomy

Sep. 14, 2019 Rise Set
Actual Time 6:33 AM PDT 6:59 PM PDT
Civil Twilight 6:08 AM PDT 7:25 PM PDT
Nautical Twilight 5:38 AM PDT 7:55 PM PDT
Astronomical Twilight 5:07 AM PDT 8:25 PM PDT
Moon 7:43 PM PDT (9/14) 6:52 AM PDT (9/14)
Length of Visible Light 13h 17m
Length of Day
12h 26m
Full, 100% of the Moon is Illuminated
Sep 14
Full
Sep 21
Last Quarter
Sep 28
New
Oct 5
First Quarter
Oct 13
Full

Hourly Weather History & Observations

Time (PDT) Temp. Dew Point Humidity Pressure Visibility Wind Dir Wind Speed Gust Speed Precip Events Conditions
12:58 AM 65.3 °F 32.5 °F 29% 29.95 in 9.0 mi ENE 4.6 mph - N/A   Clear
1:58 AM 63.1 °F 30.2 °F 29% 29.95 in 9.0 mi Calm Calm - N/A   Clear
2:58 AM 58.1 °F 29.8 °F 34% 29.94 in 9.0 mi Calm Calm - N/A   Clear
3:58 AM 58.1 °F 30.6 °F 35% 29.94 in 10.0 mi WNW 4.6 mph - N/A   Clear
4:58 AM 56.1 °F 29.7 °F 36% 29.96 in 10.0 mi Calm Calm - N/A   Clear
5:58 AM 54.1 °F 29.3 °F 39% 29.97 in 10.0 mi Calm Calm - N/A   Clear
6:58 AM 54.7 °F 29.7 °F 38% 29.98 in 8.0 mi Calm Calm - N/A   Clear
7:58 AM 64.0 °F 32.0 °F 30% 29.99 in 8.0 mi Calm Calm - N/A   Clear
8:58 AM 72.1 °F 32.4 °F 23% 30.00 in 8.0 mi Calm Calm - N/A   Clear
9:58 AM 77.2 °F 30.9 °F 18% 30.00 in 8.0 mi Calm Calm - N/A   Clear
10:58 AM 82.8 °F 31.1 °F 15% 29.99 in 6.0 mi Calm Calm - N/A   Haze
11:13 AM 84.2 °F 32.0 °F 15% 29.98 in 6.0 mi ESE 3.5 mph - N/A   Haze
11:28 AM 86.0 °F 32.0 °F 14% 29.97 in 7.0 mi Calm Calm - N/A   Clear
11:43 AM 87.8 °F 32.0 °F 14% 29.97 in 6.0 mi SSE 4.6 mph - N/A   Haze
11:58 AM 88.3 °F 31.3 °F 13% 29.96 in 7.0 mi Calm Calm - N/A   Clear
12:58 PM 94.1 °F 29.3 °F 10% 29.94 in 8.0 mi SSE 4.6 mph - N/A   Clear
1:43 PM 95.0 °F 28.4 °F 9% 29.91 in 6.0 mi West 3.5 mph - N/A   Haze
1:58 PM 95.2 °F 27.5 °F 9% 29.91 in 6.0 mi South 3.5 mph - N/A   Haze
2:58 PM 97.5 °F 26.4 °F 8% 29.88 in 6.0 mi East 3.5 mph - N/A   Haze
3:58 PM 98.4 °F 27.1 °F 8% 29.86 in 6.0 mi ESE 4.6 mph - N/A   Haze
4:58 PM 98.8 °F 24.1 °F 7% 29.85 in 6.0 mi SSE 6.9 mph - N/A   Haze
5:58 PM 97.7 °F 25.9 °F 8% 29.84 in 5.0 mi SSW 6.9 mph - N/A   Haze
7:28 PM 89.6 °F 33.8 °F 14% 29.86 in 8.0 mi SW 12.7 mph - N/A   Clear
7:58 PM 87.4 °F 37.4 °F 17% 29.85 in 8.0 mi WSW 9.2 mph - N/A   Clear
8:58 PM 83.5 °F 36.9 °F 19% 29.87 in 8.0 mi SSW 9.2 mph - N/A   Clear
9:58 PM 81.3 °F 34.9 °F 19% 29.88 in 8.0 mi SW 8.1 mph - N/A   Clear
10:58 PM 77.4 °F 34.0 °F 21% 29.89 in 8.0 mi Calm Calm - N/A   Clear
11:58 PM 71.4 °F 32.7 °F 24% 29.89 in 9.0 mi SE 11.5 mph - N/A   Clear